GW1347 Weather Reports


time (UTC)temp
F
wind
direction
speed
knots
gust
knots
rain 1hr
in
rain 24hr
in
rain mn
in
humidity
%
barometer
mb
20260503223826 62 212 8.7 16.5 0.00 0.00 0.00 42 1012.5
20260503222804 61 202 8.7 16.5 0.00 0.00 0.00 44 1012.2
20260503221818 61 231 7.0 14.8 0.00 0.00 0.00 44 1013.1
20260503215715 61 184 7.0 13.9 0.00 0.00 0.00 46 1013.0
20260503213547 63 191 7.8 16.5 0.00 0.00 0.00 39 1013.5
20260503212515 63 201 7.0 16.5 0.00 0.00 0.00 39 1013.6
20260503211451 63 165 9.6 16.5 0.00 0.00 0.00 38 1014.1
20260503210513 63 233 7.8 14.8 0.00 0.00 0.00 38 1014.5
20260503205517 64 210 7.8 13.9 0.00 0.00 0.00 38 1014.6
20260503203320 66 313 6.1 13.9 0.00 0.00 0.00 37 1014.9
20260503202250 65 230 7.0 15.6 0.00 0.00 0.00 39 1014.7
20260503201219 65 236 7.8 17.4 0.00 0.00 0.00 37 1015.1
20260503200206 64 224 7.0 17.4 0.00 0.00 0.00 37 1015.4
20260503195138 64 218 5.2 15.6 0.00 0.00 0.00 38 1015.6
20260503194139 64 259 7.8 15.6 0.00 0.00 0.00 36 1015.7
20260503193155 63 235 7.0 15.6 0.00 0.00 0.00 36 1015.6
20260503191056 64 219 7.8 16.5 0.00 0.00 0.00 37 1015.9
20260503190103 64 220 7.0 15.6 0.00 0.00 0.00 34 1016.0
20260503185127 63 243 8.7 15.6 0.00 0.00 0.00 35 1016.2
20260503184133 63 186 8.7 22.6 0.00 0.00 0.00 34 1016.6
20260503183124 63 227 7.8 22.6 0.00 0.00 0.00 32 1016.8
20260503182113 63 168 7.0 15.6 0.00 0.00 0.00 35 1017.1
20260503181043 62 217 7.8 16.5 0.00 0.00 0.00 34 1017.4
20260503174924 62 246 5.2 17.4 0.00 0.00 0.00 34 1017.8
20260503173946 62 227 7.0 17.4 0.00 0.00 0.00 34 1017.8
20260503172935 62 255 5.2 12.2 0.00 0.00 0.00 33 1017.8
20260503171947 61 237 7.0 13.9 0.00 0.00 0.00 33 1018.0
20260503170913 60 282 9.6 18.2 0.00 0.00 0.00 34 1018.1
20260503150244 57 231 5.2 13.9 0.00 0.00 0.00 40 1019.6
20260503131022 48 219 2.6 7.8 0.00 0.00 0.00 62 1020.1
20260503090125 38 224 1.7 3.5 0.00 0.00 0.00 81 1019.0
20260503080923 38 269 0.0 0.0 0.00 0.00 0.00 86 1018.8
20260503071946 37 269 0.0 0.0 0.00 0.00 0.00 89 1018.9
20260503070944 38 269 0.0 0.0 0.00 0.00 0.00 89 1018.9
20260503054621 39 269 0.0 0.0 0.00 0.00 0.00 87 1019.4
20260503053622 39 269 0.0 0.0 0.00 0.00 0.00 88 1019.4
20260503052640 39 269 0.0 0.0 0.00 0.00 0.00 88 1019.5
20260503051647 39 269 0.0 0.0 0.00 0.00 0.00 87 1019.5
20260503050615 39 269 0.0 0.0 0.00 0.00 0.00 87 1019.6
20260503045625 39 269 0.0 0.0 0.00 0.00 0.00 85 1019.6
20260503044608 40 269 0.0 0.0 0.00 0.00 0.00 81 1019.5
20260503041311 41 269 0.0 0.0 0.00 0.00 0.00 78 1019.2
20260503040255 41 269 0.0 0.0 0.00 0.00 0.00 76 1019.4
20260503035317 41 269 0.0 0.0 0.00 0.00 0.00 76 1019.4
20260503034326 41 269 0.0 0.0 0.00 0.00 0.00 75 1019.4
20260503032130 42 269 0.0 0.0 0.00 0.00 0.00 75 1019.4
20260503030000 43 269 0.0 0.0 0.00 0.00 0.00 70 1019.5
20260503021543 46 269 0.0 0.0 0.00 0.00 0.00 62 1019.2
20260503020551 46 269 0.0 0.9 0.00 0.00 0.00 58 1019.1
20260503015605 47 25 0.0 0.0 0.00 0.00 0.00 52 1018.9
20260503013459 48 314 0.0 0.0 0.00 0.00 0.00 53 1018.7
20260503012519 48 301 0.0 0.0 0.00 0.00 0.00 49 1018.6
20260503011536 50 347 0.0 0.0 0.00 0.00 0.00 46 1018.4
20260503010554 51 328 0.0 0.9 0.00 0.00 0.00 44 1018.4
20260503005548 51 343 0.0 3.5 0.00 0.00 0.00 43 1018.5
20260503004557 50 290 0.9 5.2 0.00 0.00 0.00 43 1018.5
20260503003622 51 334 0.9 6.1 0.00 0.00 0.00 42 1018.4
20260503002603 51 343 0.9 6.1 0.00 0.00 0.00 41 1018.4
20260503001621 52 286 0.9 4.3 0.00 0.00 0.00 40 1018.2
20260503000549 53 30 0.9 6.1 0.00 0.00 0.00 38 1018.1
20260502235523 53 302 1.7 6.1 0.00 0.00 0.00 38 1018.0
20260502234504 53 324 2.6 5.2 0.00 0.00 0.00 37 1017.9
20260502233458 53 239 2.6 7.0 0.00 0.00 0.00 38 1018.0
20260502232445 53 309 1.7 7.8 0.00 0.00 0.00 37 1018.0
20260502231452 53 343 2.6 7.8 0.00 0.00 0.00 37 1018.0
20260502230427 53 298 1.7 7.0 0.00 0.00 0.00 37 1018.0
20260502225443 54 301 0.9 5.2 0.00 0.00 0.00 36 1017.9